Retour au catalogue

STARLINK-11259

ActifCommunicationsVLEO
NORAD 60721·PAYLOAD·🇺🇸 United States

Lancé Aug 28, 2024 depuis Cape Canaveral Space Force Station

Loading…

Prochains Passages (prochaines 24 heures)

TLE

FraisSource: CelesTrak SupGP

Époque: Sep 14, 2026, 21:34 UTC

1 60721C 24152B   26257.89909722  .00029148  00000+0  24008-3 0  2575
2 60721  53.1570 263.7805 0001193  92.6927 101.7677 15.69696921    13

Suivez STARLINK-11259 en temps réel avec AllMySat

Download on the App Store